GW1898 Weather Reports


time (UTC)temp
C
wind
direction
speed
KPH
gust
KPH
rain 1hr
cm
rain 24hr
cm
rain mn
cm
humidity
%
barometer
mb
20260505063044 16 161 0.0 4.8 0.00 0.00 0.00 61 1011.2
20260505061542 16 221 1.6 1.6 0.00 0.00 0.00 59 1011.2
20260505060044 16 159 0.0 1.6 0.00 0.00 0.00 59 1011.2
20260505054553 16 167 0.0 1.6 0.00 0.00 0.00 58 1011.2
20260505053054 16 159 0.0 1.6 0.00 0.00 0.00 58 1011.2
20260505051543 16 0 0.0 0.0 0.00 0.00 0.00 58 1011.3
20260505041543 17 0 0.0 0.0 0.00 0.00 0.00 52 1011.4
20260505040051 17 0 0.0 0.0 0.00 0.00 0.00 52 1011.3
20260505034546 18 0 0.0 0.0 0.00 0.00 0.00 52 1011.2
20260505033045 18 0 0.0 3.2 0.00 0.00 0.00 49 1011.1
20260505031541 18 0 0.0 0.0 0.00 0.00 0.00 49 1011.1
20260505030048 18 159 0.0 0.0 0.00 0.00 0.00 49 1011.1
20260505024546 19 109 1.6 1.6 0.00 0.00 0.00 47 1011.1
20260505023042 19 167 1.6 1.6 0.00 0.00 0.00 47 1011.2
20260505021547 19 189 0.0 1.6 0.00 0.00 0.00 47 1011.0
20260505020042 19 155 0.0 0.0 0.00 0.00 0.00 47 1011.1
20260505014542 19 0 0.0 3.2 0.00 0.00 0.00 47 1010.8
20260505013047 20 211 3.2 4.8 0.00 0.00 0.00 47 1010.5
20260505011549 20 0 0.0 3.2 0.00 0.00 0.00 46 1010.5
20260505010050 20 0 0.0 1.6 0.00 0.00 0.00 46 1010.4
20260505004545 20 0 0.0 0.0 0.00 0.00 0.00 46 1010.3
20260505003040 21 0 0.0 1.6 0.00 0.00 0.00 44 1010.3
20260505001540 21 208 3.2 3.2 0.00 0.00 0.00 44 1010.2
20260505000053 22 179 4.8 4.8 0.00 0.00 0.00 44 1010.2
20260504234547 22 140 0.0 3.2 0.00 0.00 0.00 38 1010.0
20260504233043 23 184 1.6 4.8 0.00 0.00 0.00 38 1009.9
20260504231542 25 47 0.0 12.9 0.00 0.00 0.00 38 1009.9
20260504230040 25 223 1.6 4.8 0.00 0.00 0.00 34 1009.9
20260504224549 25 234 1.6 4.8 0.00 0.00 0.00 34 1009.8
20260504223043 25 133 6.4 6.4 0.00 0.00 0.00 32 1009.9
20260504221543 25 121 12.9 12.9 0.00 0.00 0.00 32 1009.9
20260504220048 25 182 3.2 4.8 0.00 0.00 0.00 32 1009.9
20260504214554 25 236 1.6 3.2 0.00 0.00 0.00 32 1010.0
20260504213049 25 168 1.6 4.8 0.00 0.00 0.00 32 1010.0
20260504211541 25 296 6.4 8.0 0.00 0.00 0.00 32 1009.8
20260504210042 25 238 3.2 9.7 0.00 0.00 0.00 29 1010.0
20260504204542 25 139 1.6 4.8 0.00 0.00 0.00 29 1010.0
20260504203045 25 223 4.8 8.0 0.00 0.00 0.00 29 1010.1
20260504201542 25 126 12.9 12.9 0.00 0.00 0.00 31 1010.5
20260504200048 25 157 4.8 9.7 0.00 0.00 0.00 31 1010.5
20260504194546 25 201 0.0 8.0 0.00 0.00 0.00 31 1010.6
20260504193047 24 309 0.0 9.7 0.00 0.00 0.00 32 1010.9
20260504191552 24 164 6.4 9.7 0.00 0.00 0.00 32 1011.1
20260504190052 24 35 9.7 14.5 0.00 0.00 0.00 32 1011.4
20260504184552 23 230 12.9 17.7 0.00 0.00 0.00 33 1011.7
20260504183049 23 212 8.0 9.7 0.00 0.00 0.00 33 1012.0
20260504181550 23 347 4.8 11.3 0.00 0.00 0.00 33 1012.1
20260504180049 23 146 6.4 6.4 0.00 0.00 0.00 32 1012.3
20260504174544 23 166 4.8 14.5 0.00 0.00 0.00 32 1012.5
20260504173041 23 139 0.0 6.4 0.00 0.00 0.00 32 1012.7
20260504171539 22 155 1.6 3.2 0.00 0.00 0.00 36 1012.9
20260504081546 10 0 0.0 0.0 0.00 0.00 0.00 60 1015.6